Location: Dumpton Point
(51.3500°N, 1.4433°E)
Time: 06:59:20
(UTC+00:00)

A-11 Canister half - Visible Passes

Search period start: 04 December 2023 00:00
Search period end: 14 December 2023 00:00
Orbit: 1525 x 1684 km, 47.3° (Epoch: 02 December)

Date Brightness Start Highest point End Pass type
(mag) Time Alt. Az. Time Alt. Az. Time Alt. Az.
04 Dec 10.8 16:33:26 10° SE 16:34:55 10° ESE 16:36:24 10° ESE visible
04 Dec 9.7 18:28:44 10° SSW 18:37:33 35° SE 18:39:19 33° ESE visible
04 Dec 9.9 20:31:35 10° WSW 20:37:38 40° SW 20:37:38 40° SW visible
05 Dec 9.8 18:07:09 10° SSW 18:15:52 34° SE 18:18:58 29° ESE visible
05 Dec 9.5 20:09:51 10° WSW 20:17:16 50° SSW 20:17:16 50° SSW visible
05 Dec 11.1 22:14:27 10° W 22:15:34 14° W 22:15:34 14° W visible
06 Dec 9.9 17:45:35 10° SSW 17:54:10 33° SE 17:58:34 24° E visible
06 Dec 9.3 19:48:07 10° WSW 19:56:52 58° S 19:56:52 58° S visible
06 Dec 10.8 21:52:41 10° W 21:55:10 20° W 21:55:10 20° W visible
07 Dec 10.0 17:24:02 10° SSW 17:32:29 32° SE 17:38:08 19° E visible
07 Dec 9.1 19:26:25 10° WSW 19:36:19 61° SSE 19:36:26 61° SSE visible
07 Dec 10.5 21:30:56 10° W 21:34:44 27° W 21:34:44 27° W visible
08 Dec 10.1 17:02:29 10° SSW 17:10:48 30° SE 17:17:41 14° E visible
08 Dec 9.1 19:04:41 10° SW 19:14:35 60° SSE 19:15:58 56° SE visible
08 Dec 10.2 21:09:09 10° W 21:14:16 35° WSW 21:14:16 35° WSW visible
09 Dec 10.2 16:40:57 10° S 16:49:07 29° SE 16:57:11 10° E visible
09 Dec 9.3 18:42:58 10° SW 18:52:51 58° SSE 18:55:29 47° ESE visible
09 Dec 9.8 20:47:23 10° W 20:53:46 44° WSW 20:53:46 44° WSW visible
10 Dec 10.2 16:19:26 10° S 16:27:27 28° SE 16:35:28 10° E visible
10 Dec 9.3 18:21:17 10° SW 18:31:06 57° SSE 18:34:58 39° ESE visible
10 Dec 9.5 20:25:38 10° W 20:33:15 55° WSW 20:33:15 55° WSW visible
10 Dec 11.1 22:30:34 10° W 22:31:32 14° W 22:31:32 14° W visible
11 Dec 9.4 17:59:35 10° SW 18:09:22 56° SSE 18:14:27 31° E visible
11 Dec 9.2 20:03:52 10° W 20:12:44 66° SW 20:12:44 66° SW visible
11 Dec 10.9 22:08:47 10° W 22:11:01 19° W 22:11:01 19° W visible
12 Dec 9.5 17:37:53 10° SW 17:47:38 55° SSE 17:53:54 24° E visible
12 Dec 9.0 19:42:06 10° W 19:52:11 72° S 19:52:11 72° S visible
12 Dec 10.6 21:47:01 10° W 21:50:29 24° W 21:50:29 24° W visible
13 Dec 9.5 17:16:13 10° SW 17:25:54 53° SSE 17:33:22 19° E visible
13 Dec 9.0 19:20:21 10° W 19:30:28 72° S 19:31:39 66° SE visible
13 Dec 10.3 21:25:15 10° W 21:29:57 31° W 21:29:57 31° W visible
